Weather in Bolshenikolskoye

Russia / Chelyabinsk Oblast     54°33′03″N   62°11′00″E
temp.,
°C
wind,
m/s
gust,
m/s
humid.,
%
clouds,
%
prec.,
mm/h
press.,
hPa
HPBL,
m
24 january, sun
sun2423:00−28s3694100 0.0 1039138
02:00−26s479398 0.0 1038224
05:00−25s579898 0.3 1038253
08:00−24sse5897100 0.3 1037274
11:00−22sse5896100 0.4 1036285
14:00−19s5896100 0.1 1034328
17:00−17sse5996100 0.4 1033337
20:00−15s51095100 0.5 1031343
25 january, mon
mon2523:00−12s599598 0.8 1029285
02:00−10ssw369697 0.2 1028147
05:00−7wsw339297 0.2 102873
08:00−2w3797100 0.4 1028208
11:00+1w37100100 0.6 1030236
14:00+1w47100100 0.1 1030195
17:00−2w449087 0.1 103175
20:00−3w348944 0.0 103132
26 january, tue
tue2623:00−4w338865 0.0 103226
02:00−6sw348966 0.0 103234
05:00−8wsw339277 0.0 103226
08:00−8wsw339098 0.0 103224
11:00−8wsw239079 0.0 103332
14:00−6sw339119 0.0 103282
17:00−7sw349032 0.0 103248
20:00−6wsw349189 0.0 103280
27 january, wed
wed2723:00−7sw479094 0.0 1031104
02:00−7sw4788100 0.0 1032122
05:00−7wsw4786100 0.0 1031123
08:00−8wsw488695 0.0 1031109
11:00−7sw498894 0.0 1031179
14:00−4sw599053 0.0 1031273
17:00−4sw4109177 0.0 1030239
20:00−5sw499194 0.0 1031173
28 january, thu
thu2823:00−7sw499197 0.0 1031168
02:00−7sw5109380 0.0 1031173
05:00−7sw5119390 0.0 1031212
08:00−7sw5119293 0.0 1031211
11:00−6sw5129390 0.0 1031284
14:00−4sw6119096 0.0 1030349
17:00−6ssw5109198 0.0 1030268
20:00−8ssw5119087 0.0 1030258